This is the latest recevied weather packets stored in our database for station/object 9A3SWO. If no packets are shown the sender has not sent any weather packets the latest 10 day(s).
| Time | Temp. | Humidity | Pressure | Rain* | Wind** | Luminosity | Snow |
|---|---|---|---|---|---|---|---|
| 1787592486 | 27.78° C | 37% | 1016.9 hPa | - | - | - | - |
| 1787591887 | 28.33° C | 35% | 1016.8 hPa | - | - | - | - |
| 1787591286 | 28.89° C | 35% | 1016.8 hPa | - | - | - | - |
| 1787590686 | 28.89° C | 34% | 1016.8 hPa | - | - | - | - |
| 1787590086 | 29.44° C | 34% | 1016.9 hPa | - | - | - | - |
| 1787589486 | 29.44° C | 35% | 1017.1 hPa | - | - | - | - |
| 1787588887 | 29.44° C | 34% | 1017.2 hPa | - | - | - | - |
| 1787588287 | 29.44° C | 34% | 1017.2 hPa | - | - | - | - |
| 1787587686 | 28.89° C | 33% | 1017.2 hPa | - | - | - | - |
| 1787587086 | 29.44° C | 31% | 1017.2 hPa | - | - | - | - |
| 1787586486 | 28.89° C | 33% | 1017.5 hPa | - | - | - | - |
| 1787585887 | 28.33° C | 33% | 1017.6 hPa | - | - | - | - |
| 1787585287 | 28.89° C | 32% | 1017.8 hPa | - | - | - | - |
| 1787584686 | 28.89° C | 33% | 1017.8 hPa | - | - | - | - |
| 1787584086 | 29.44° C | 33% | 1017.7 hPa | - | - | - | - |
| 1787583486 | 28.89° C | 32% | 1017.9 hPa | - | - | - | - |
| 1787582887 | 28.33° C | 32% | 1017.9 hPa | - | - | - | - |
| 1787582286 | 29.44° C | 33% | 1017.9 hPa | - | - | - | - |
| 1787581687 | 28.33° C | 33% | 1018 hPa | - | - | - | - |
| 1787581086 | 28.89° C | 33% | 1018 hPa | - | - | - | - |
| 1787580486 | 27.78° C | 34% | 1018.1 hPa | - | - | - | - |
| 1787579886 | 28.33° C | 34% | 1018.2 hPa | - | - | - | - |
| 1787579285 | 28.33° C | 33% | 1018.3 hPa | - | - | - | - |
| 1787578686 | 27.78° C | 34% | 1018.6 hPa | - | - | - | - |
| 1787578086 | 27.78° C | 33% | 1018.6 hPa | - | - | - | - |
* Rain since midnight (hover to see other rain measurements)
** Current wind speed in m/s (hover to see current wind gust speed)